• In Germany
  • List of Countries
  • For 7 days
  • Water Temperature
  • Satellite Maps
  • Weather Map
  • Weather Widgets
  • user-avatar
    Login

    Hourly Weather Kabul

    Today, 11 December, Monday

    Time Temperature Precipitation Wind Pressure Humidity
    00:00 +2°C° 0 mm 2 mps 606 mmHg 19%
    01:00 +1°C° 0 mm 2 mps 606 mmHg 20%
    02:00 +1°C° 0 mm 2 mps 606 mmHg 21%
    03:00 +1°C° 0 mm 2 mps 605 mmHg 22%
    04:00 -1°C° 0 mm 2 mps 605 mmHg 24%
    05:00 -1°C° 0 mm 2 mps 605 mmHg 30%
    06:00 -1°C° 0 mm 2 mps 605 mmHg 31%
    07:00 -1°C° 0 mm 2 mps 605 mmHg 33%
    08:00 -1°C° 0 mm 2 mps 605 mmHg 34%
    09:00 +1°C° 0 mm 2 mps 606 mmHg 32%
    10:00 +3°C° 0 mm 2 mps 606 mmHg 31%
    11:00 +4°C° 0 mm 2 mps 606 mmHg 31%
    12:00 +5°C° 0 mm 2 mps 605 mmHg 31%
    13:00 +5°C° 0 mm 2 mps 605 mmHg 32%
    14:00 +5°C° 0 mm 2 mps 605 mmHg 32%
    15:00 +5°C° 0 mm 2 mps 604 mmHg 34%
    16:00 +5°C° 0 mm 1 mps 604 mmHg 36%
    17:00 +5°C° 0 mm 1 mps 604 mmHg 37%
    18:00 +4°C° 0 mm 1 mps 604 mmHg 40%
    19:00 +3°C° 0 mm 1 mps 604 mmHg 42%
    20:00 +2°C° 0 mm 1 mps 604 mmHg 45%
    21:00 +2°C° 0 mm 1 mps 604 mmHg 45%
    22:00 +1°C° 0 mm 1 mps 604 mmHg 45%
    23:00 +1°C° 0 mm 1 mps 604 mmHg 45%

    Tomorrow, 12 December, Tuesday

    Time Temperature Precipitation Wind Pressure Humidity
    00:00 +1°C° 0 mm 1 mps 603 mmHg 44%
    01:00 -1°C° 0 mm 2 mps 603 mmHg 44%
    02:00 -2°C° 0 mm 2 mps 603 mmHg 44%
    03:00 -2°C° 0 mm 2 mps 603 mmHg 44%
    04:00 -2°C° 0 mm 2 mps 603 mmHg 44%
    05:00 -3°C° 0 mm 2 mps 603 mmHg 44%
    06:00 -3°C° 0 mm 2 mps 603 mmHg 44%
    07:00 -2°C° 0 mm 2 mps 604 mmHg 43%
    08:00 -2°C° 0 mm 2 mps 604 mmHg 42%
    09:00 -1°C° 0 mm 2 mps 605 mmHg 38%
    10:00 +2°C° 0 mm 2 mps 606 mmHg 33%
    11:00 +4°C° 0 mm 1 mps 606 mmHg 28%
    12:00 +4°C° 0 mm 2 mps 606 mmHg 27%
    13:00 +4°C° 0 mm 2 mps 606 mmHg 26%
    14:00 +5°C° 0 mm 2 mps 606 mmHg 25%
    15:00 +4°C° 0 mm 2 mps 606 mmHg 27%
    16:00 +3°C° 0 mm 2 mps 606 mmHg 29%
    17:00 +3°C° 0 mm 2 mps 606 mmHg 31%
    18:00 +2°C° 0 mm 2 mps 606 mmHg 34%
    19:00 +2°C° 0 mm 1 mps 606 mmHg 37%
    20:00 +1°C° 0 mm 1 mps 607 mmHg 39%
    21:00 +1°C° 0 mm 1 mps 607 mmHg 41%
    22:00 0°C° 0 mm 1 mps 607 mmHg 42%
    23:00 0°C° 0 mm 1 mps 607 mmHg 44%

    Day after tomorrow, 13 December, Wednesday

    Time Temperature Precipitation Wind Pressure Humidity
    00:00 -1°C° 0 mm 1 mps 606 mmHg 45%
    01:00 -1°C° 0 mm 1 mps 606 mmHg 45%
    02:00 -2°C° 0 mm 1 mps 606 mmHg 46%
    03:00 -2°C° 0 mm 1 mps 606 mmHg 46%
    04:00 -2°C° 0 mm 1 mps 606 mmHg 45%
    05:00 -2°C° 0 mm 1 mps 605 mmHg 44%
    06:00 -2°C° 0 mm 1 mps 606 mmHg 41%
    07:00 -2°C° 0 mm 1 mps 606 mmHg 39%
    08:00 -2°C° 0 mm 1 mps 606 mmHg 36%
    09:00 -1°C° 0 mm 1 mps 607 mmHg 32%
    10:00 0°C° 0 mm 1 mps 607 mmHg 29%
    11:00 +1°C° 0 mm 1 mps 607 mmHg 26%
    12:00 +1°C° 0 mm 2 mps 607 mmHg 27%
    13:00 +1°C° 0 mm 2 mps 607 mmHg 29%
    14:00 +1°C° 0 mm 2 mps 606 mmHg 30%
    15:00 +1°C° 0 mm 2 mps 606 mmHg 32%
    16:00 +1°C° 0 mm 2 mps 606 mmHg 34%
    17:00 -1°C° 0 mm 2 mps 606 mmHg 37%
    18:00 -2°C° 0 mm 2 mps 606 mmHg 38%
    19:00 0°C° 0 mm 1 mps 606 mmHg 40%
    20:00 -1°C° 0 mm 1 mps 606 mmHg 41%
    21:00 -1°C° 0 mm 1 mps 606 mmHg 42%
    22:00 -2°C° 0 mm 1 mps 606 mmHg 42%
    23:00 -2°C° 0 mm 1 mps 606 mmHg 43%

    14 December, Thursday

    Time Temperature Precipitation Wind Pressure Humidity
    00:00 -2°C° 0 mm 1 mps 606 mmHg 44%
    01:00 -3°C° 0 mm 1 mps 606 mmHg 46%
    02:00 -3°C° 0 mm 1 mps 605 mmHg 47%
    03:00 -3°C° 0 mm 1 mps 605 mmHg 48%
    04:00 -3°C° 0 mm 1 mps 605 mmHg 49%
    05:00 -4°C° 0 mm 1 mps 605 mmHg 51%
    06:00 -4°C° 0 mm 1 mps 606 mmHg 51%
    07:00 -4°C° 0 mm 1 mps 606 mmHg 50%
    08:00 -4°C° 0 mm 1 mps 606 mmHg 50%
    09:00 -5°C° 0 mm 2 mps 607 mmHg 48%
    10:00 -4°C° 0 mm 2 mps 607 mmHg 46%
    11:00 -3°C° 0 mm 2 mps 608 mmHg 44%
    12:00 -3°C° 0 mm 2 mps 608 mmHg 45%
    13:00 -2°C° 0 mm 2 mps 608 mmHg 45%
    14:00 -2°C° 0 mm 2 mps 607 mmHg 46%
    15:00 -3°C° 0.1 mm 2 mps 607 mmHg 48%
    16:00 -3°C° 0.1 mm 2 mps 607 mmHg 50%
    17:00 -3°C° 0.1 mm 2 mps 607 mmHg 52%
    18:00 -4°C° 0 mm 2 mps 608 mmHg 52%
    19:00 -4°C° 0 mm 2 mps 608 mmHg 53%
    20:00 -2°C° 0 mm 1 mps 608 mmHg 53%
    21:00 -3°C° 0 mm 1 mps 608 mmHg 54%
    22:00 -3°C° 0 mm 1 mps 608 mmHg 55%
    23:00 -3°C° 0 mm 1 mps 608 mmHg 55%

    15 December, Friday

    Time Temperature Precipitation Wind Pressure Humidity
    00:00 -4°C° 0 mm 1 mps 608 mmHg 56%
    01:00 -4°C° 0 mm 1 mps 608 mmHg 56%
    02:00 -4°C° 0 mm 1 mps 607 mmHg 56%
    03:00 -6°C° 0 mm 1 mps 607 mmHg 56%
    04:00 -6°C° 0 mm 1 mps 607 mmHg 56%
    05:00 -6°C° 0 mm 1 mps 607 mmHg 56%
    06:00 -6°C° 0 mm 1 mps 608 mmHg 54%
    07:00 -6°C° 0 mm 1 mps 608 mmHg 52%
    08:00 -6°C° 0 mm 1 mps 609 mmHg 51%
    09:00 -3°C° 0 mm 1 mps 609 mmHg 45%
    10:00 -2°C° 0 mm 1 mps 610 mmHg 39%
    11:00 -1°C° 0 mm 1 mps 610 mmHg 34%
    12:00 -2°C° 0 mm 2 mps 610 mmHg 32%
    13:00 -1°C° 0 mm 2 mps 610 mmHg 31%
    14:00 -1°C° 0 mm 2 mps 610 mmHg 29%
    15:00 -1°C° 0 mm 2 mps 610 mmHg 30%
    16:00 -2°C° 0 mm 2 mps 610 mmHg 32%
    17:00 -2°C° 0 mm 2 mps 610 mmHg 33%
    18:00 -3°C° 0 mm 2 mps 610 mmHg 34%
    19:00 -1°C° 0 mm 1 mps 610 mmHg 35%
    20:00 -2°C° 0 mm 1 mps 610 mmHg 36%
    21:00 -2°C° 0 mm 1 mps 610 mmHg 36%
    22:00 -2°C° 0 mm 1 mps 610 mmHg 36%
    23:00 -2°C° 0 mm 1 mps 610 mmHg 36%

    16 December, Saturday

    Time Temperature Precipitation Wind Pressure Humidity
    00:00 -3°C° 0 mm 1 mps 610 mmHg 37%
    01:00 -3°C° 0 mm 1 mps 610 mmHg 37%
    02:00 -3°C° 0 mm 1 mps 609 mmHg 37%
    03:00 -3°C° 0 mm 1 mps 609 mmHg 38%
    04:00 -3°C° 0 mm 1 mps 609 mmHg 39%
    05:00 -3°C° 0 mm 1 mps 609 mmHg 40%
    06:00 -3°C° 0 mm 1 mps 609 mmHg 39%
    07:00 -3°C° 0 mm 1 mps 609 mmHg 39%
    08:00 -2°C° 0 mm 1 mps 610 mmHg 38%
    09:00 0°C° 0 mm 1 mps 610 mmHg 34%
    10:00 +1°C° 0 mm 1 mps 611 mmHg 30%
    11:00 +3°C° 0 mm 1 mps 611 mmHg 27%
    12:00 +4°C° 0 mm 1 mps 611 mmHg 26%
    13:00 +5°C° 0 mm 1 mps 610 mmHg 26%
    14:00 +5°C° 0 mm 1 mps 610 mmHg 25%
    15:00 +4°C° 0 mm 1 mps 610 mmHg 27%
    16:00 +4°C° 0 mm 1 mps 610 mmHg 29%
    17:00 +3°C° 0 mm 1 mps 609 mmHg 31%
    18:00 +3°C° 0 mm 1 mps 610 mmHg 33%
    19:00 +2°C° 0 mm 1 mps 610 mmHg 35%
    20:00 +1°C° 0 mm 1 mps 610 mmHg 36%
    21:00 +1°C° 0 mm 1 mps 610 mmHg 37%
    22:00 +1°C° 0 mm 1 mps 610 mmHg 38%
    23:00 0°C° 0 mm 1 mps 610 mmHg 39%
    Show more